Location: Goettingen
(51.5300°N, 9.9433°E)
Time: 19:13:53
(UTC+02:00)

ISS - Pass Details

Date: 17 September 2021
Orbit: 419 x 423 km, 51.6° (Epoch: 20 September)

Event Time Altitude Azimuth Distance (km) Brightness Sun altitude
Rises 20:02:16 0° 189° (S) 2,353 0.0 -5.8°
Reaches altitude 10° 20:06:06 10° 144° (SE) 1,497 -1.4 -6.4°
Maximum altitude 20:06:34 10° 136° (SE) 1,484 -1.5 -6.5°
Drops below altitude 10° 20:07:03 10° 128° (SE) 1,498 -1.5 -6.6°
Enters shadow 20:08:02 - 112° (ESE) 1,612 -1.5 -6.7°
